Binghamton, NY

9:46 PM EST on November 16, 2019 (GMT -0500)
Binghamton Regional-Link

Weather History for KBGM - September, 2019

Change the Weather History Date:

Monday, September 9, 2019

  Actual Average Record
Temperature  
Mean Temperature 59 °F 62 °F  
Max Temperature 68 °F 71 °F 90 °F (1959)
Min Temperature 50 °F 53 °F 38 °F (1979)
Degree Days  
Heating Degree Days 6 4  
Month to date heating degree days 40 31  
Since 1 July heating degree days 77 94  
Cooling Degree Days 0 1  
Month to date cooling degree days 0 16  
Year to date cooling degree days 362 364  
Growing Degree Days 9 (Base 50)    
Moisture  
Dew Point 51 °F    
Average Humidity 76    
Maximum Humidity 96    
Minimum Humidity 55    
Precipitation  
Precipitation 0.00 in 0.12 in 1.20 in (1967)
Month to date precipitation 1.35 1.04  
Year to date precipitation 30.14 27.25  
Snow  
Snow 0.00 in 0.00 in 0.00 in (2002)
Month to date snowfall 0.0 0.0  
Since 1 July snowfall 0.0 0.0  
Since 1 September snowfall 0.0 0.0  
Snow Depth 0.00 in    
Sea Level Pressure  
Sea Level Pressure 30.27 in    
Wind  
Wind Speed 5 mph (NNE)    
Max Wind Speed 9 mph    
Max Gust Speed 12 mph    
Visibility 10 miles    
Events      
T = Trace of Precipitation, MM = Missing Value Source: NWS Daily Summary

Daily Weather History Graph

Daily Weather History Graph

Search for Another Location

Airport or City:

Astronomy

Sep. 09, 2019 Rise Set
Actual Time 6:37 AM EDT 7:24 PM EDT
Civil Twilight 6:09 AM EDT 7:52 PM EDT
Nautical Twilight 5:35 AM EDT 8:26 PM EDT
Astronomical Twilight 5:00 AM EDT 9:01 PM EDT
Moon 5:23 PM EDT (9/9) 2:01 AM EDT (9/9)
Length of Visible Light 13h 43m
Length of Day
12h 47m
Waxing Gibbous, 83% of the Moon is Illuminated
Sep 9
Waxing Gibbous
Sep 14
Full
Sep 21
Last Quarter
Sep 28
New
Oct 5
First Quarter

Hourly Weather History & Observations

Time (EDT) Temp. Dew Point Humidity Pressure Visibility Wind Dir Wind Speed Gust Speed Precip Events Conditions
12:53 AM 54.0 °F 50.0 °F 86% 30.22 in 10.0 mi Calm Calm - N/A   Scattered Clouds
1:53 AM 54.0 °F 50.0 °F 86% 30.22 in 10.0 mi North 3.5 mph - N/A   Overcast
2:53 AM 53.1 °F 50.0 °F 89% 30.22 in 10.0 mi NNE 5.8 mph - N/A   Overcast
3:53 AM 51.1 °F 48.9 °F 92% 30.22 in 10.0 mi NE 3.5 mph - N/A   Scattered Clouds
4:53 AM 51.1 °F 48.0 °F 89% 30.23 in 10.0 mi NE 4.6 mph - N/A   Mostly Cloudy
5:53 AM 50.0 °F 48.0 °F 93% 30.24 in 10.0 mi NE 4.6 mph - N/A   Mostly Cloudy
6:53 AM 50.0 °F 48.9 °F 96% 30.25 in 10.0 mi ENE 5.8 mph - N/A   Mostly Cloudy
7:53 AM 52.0 °F 50.0 °F 93% 30.27 in 10.0 mi ENE 4.6 mph - N/A   Mostly Cloudy
8:53 AM 54.0 °F 50.0 °F 86% 30.29 in 10.0 mi ENE 5.8 mph - N/A   Mostly Cloudy
9:53 AM 57.0 °F 50.0 °F 77% 30.31 in 10.0 mi ENE 5.8 mph - N/A   Partly Cloudy
10:53 AM 61.0 °F 50.0 °F 67% 30.30 in 10.0 mi Variable 3.5 mph - N/A   Scattered Clouds
11:53 AM 64.0 °F 51.1 °F 63% 30.28 in 10.0 mi Calm Calm - N/A   Clear
12:53 PM 64.0 °F 52.0 °F 65% 30.28 in 10.0 mi Variable 3.5 mph - N/A   Overcast
1:53 PM 64.9 °F 52.0 °F 63% 30.27 in 10.0 mi NW 4.6 mph - N/A   Mostly Cloudy
2:53 PM 66.0 °F 52.0 °F 60% 30.26 in 10.0 mi East 3.5 mph - N/A   Overcast
3:53 PM 66.9 °F 52.0 °F 59% 30.27 in 10.0 mi WNW 5.8 mph - N/A   Overcast
4:53 PM 68.0 °F 52.0 °F 56% 30.26 in 10.0 mi NNW 3.5 mph - N/A   Mostly Cloudy
5:53 PM 66.9 °F 52.0 °F 59% 30.26 in 10.0 mi NW 5.8 mph - N/A   Mostly Cloudy
6:53 PM 63.0 °F 54.0 °F 72% 30.28 in 10.0 mi NNE 6.9 mph - N/A   Clear
7:53 PM 60.1 °F 52.0 °F 75% 30.29 in 10.0 mi North 8.1 mph - N/A   Clear
8:53 PM 57.9 °F 52.0 °F 81% 30.31 in 10.0 mi NE 8.1 mph - N/A   Clear
9:53 PM 55.9 °F 51.1 °F 84% 30.32 in 10.0 mi NE 5.8 mph - N/A   Clear
10:53 PM 55.0 °F 50.0 °F 83% 30.31 in 10.0 mi NE 6.9 mph - N/A   Clear
11:53 PM 54.0 °F 48.9 °F 83% 30.31 in 10.0 mi ENE 5.8 mph - N/A   Clear